Home   Weather   Santa Cruz   Past weeks

Flag for USA Past Weather in Santa Cruz, California, USA — Yesterday and Last 2 Weeks

Now
51 °F

Overcast.


Feels Like: 51 °F
Forecast: 51 / 56 °F
Wind: No wind

Location: Watsonville Municipal Airport

Current Time: Mar 24, 2017 at 8:56:44 am

Latest Report: Mar 24, 2017 at 7:53 am


Visibility: 10 mi

Pressure: 30.21 "Hg

Humidity: 83%

Dew Point: 46 °F

Location of Santa CruzLocation

Past Weather in Santa Cruz — Graph

°F

Santa Cruz Temperature Yesterday

Maximum temperature yesterday: 59 °F (at 12:53 pm)
Minimum temperature yesterday: 42 °F (at 5:53 am)
Average temperature yesterday: 51 °F

High & Low Weather Summary for the Past Weeks

 TemperatureHumidityPressure
High84 °F (Mar 13, 3:53 pm)100% (Mar 9, 5:53 am)30.26 "Hg (Mar 9, 5:53 am)
Low42 °F (Mar 23, 5:53 am)30% (Mar 13, 3:53 pm)29.89 "Hg (Mar 21, 5:06 am)
Average56 °F88%30.09 "Hg
* Reported Mar 9 5:53 am — Mar 24 6:53 am, Santa Cruz, Weather by CustomWeather, © 2017

Note: Actual official high and low records may vary slightly from our data, if they occured in-between our weather recording intervals... More about our weather records

Advertising

Santa Cruz Weather History for the Previous 24 Hours

Scroll right to see more
 ConditionsComfort  
Time TempWeatherWind HumidityBarometerVisibility
6:53 am
Fri, Mar 24
50 °FOvercast.No wind93%30.20 "Hg10 mi
5:53 am50 °FOvercast.No wind93%30.21 "Hg10 mi
4:53 am49 °FMostly cloudy.No wind97%30.21 "Hg10 mi
3:53 am49 °FMostly cloudy.No wind97%30.23 "Hg10 mi
2:53 am49 °FClear.No wind97%30.24 "Hg10 mi
1:53 am49 °FClear.3 mph93%30.25 "Hg10 mi
12:53 am49 °FPassing clouds.No wind93%30.24 "Hg10 mi
11:53 pm
Thu, Mar 23
49 °FOvercast.3 mph93%30.25 "Hg10 mi
10:53 pm48 °FPartly cloudy.No wind96%30.26 "Hg10 mi
9:53 pm50 °FPassing clouds.No wind89%30.25 "Hg10 mi
8:53 pm51 °FClear.No wind83%30.25 "Hg10 mi
7:53 pm51 °FPassing clouds.No wind83%30.25 "Hg10 mi
6:53 pm52 °FSunny.3 mph80%30.24 "Hg10 mi
5:53 pm54 °FSunny.13 mph77%30.24 "Hg10 mi
4:53 pm58 °FSunny.8 mph67%30.23 "Hg10 mi
3:53 pm58 °FSunny.12 mph70%30.22 "Hg10 mi
2:53 pm59 °FSunny.9 mph69%30.22 "Hg10 mi
1:53 pm58 °FPartly sunny.9 mph70%30.24 "Hg10 mi
1:29 pm58 °FBroken clouds.7 mph70%30.25 "Hg10 mi
1:18 pm58 °FPartly sunny.9 mph72%30.25 "Hg10 mi
12:53 pm59 °FScattered clouds.8 mph69%30.25 "Hg10 mi
11:53 am55 °FPassing clouds.6 mph72%30.25 "Hg10 mi
10:53 am54 °FPartly sunny.No wind77%30.26 "Hg10 mi
9:53 am54 °FSunny.No wind77%30.24 "Hg10 mi
8:53 am50 °FSunny.No wind86%30.23 "Hg10 mi
Weather by CustomWeather, © 2017

See weather overviewHow to use our weather pages